Regional Weather Roundup
Issued by NWS Albany, NY

Home | Current Version | Previous Version | Text Only | Print | Product List | Glossary On
Versions: 1 2 3 4 5 6 7 8 9 10 11 12 13 14 15 16 17 18 19 20 21 22 23 24 25 26 27 28 29 30 31 32 33 34 35 36 37 38 39 40 41 42 43 44 45 46 47 48 49 50
000
ASUS41 KALY 181010
RWRALY

NEW YORK STATE HOURLY WEATHER ROUNDUP
NATIONAL WEATHER SERVICE ALBANY NY
600 AM EDT FRI AUG 18 2017

NOTE: "FAIR" INDICATES FEW OR NO CLOUDS BELOW 12,000 FEET WITH NO
SIGNIFICANT WEATHER AND/OR NO OBSTRUCTIONS TO VISIBILITY.

NYZ032-033-038>043-046>054-057>066-NYZ062>081-082-084-181100-
EAST


CITY           SKY/WX    TMP DP  RH WIND       PRES   REMARKS
ALBANY         LGT RAIN  72  66  81 S15G22    29.83F
GLENS FALLS    CLOUDY    63  59  87 CALM      29.83F
POUGHKEEPSIE   MOCLDY    74  69  85 S3        29.87S
NEWBURGH       LGT RAIN  73  72  94 CALM      29.90F
MONTGOMERY     LGT RAIN  72  70  93 S3        29.88S
WHITE PLAINS   CLOUDY    74  72  93 S7        29.91S
ISLIP          CLOUDY    75  72  90 SE8       29.92S
NEW YORK CITY  CLOUDY    76  73  91 S10       29.88F
CENTRAL PARK   CLOUDY    76  68  76 VRB3      29.92S
$$

NYZ005>009-017-018-044>046-055-056-181100-
CENTRAL


CITY           SKY/WX    TMP DP  RH WIND       PRES   REMARKS
FULTON         LGT RAIN  74  71  91 SW5       29.74R
SYRACUSE       MOCLDY    73  71  93 S7        29.74S
ROME           CLOUDY    69  67  93 E7        29.77S
ELMIRA         PTCLDY    75  71  87 SW7       29.79R
BINGHAMTON     CLOUDY    70  70 100 S7        29.85R FOG
MONTICELLO     CLOUDY    69  68  96 S10       29.92R FOG
$$

NYZ026>034-041>043-087-181100-
NORTH


CITY           SKY/WX    TMP DP  RH WIND       PRES   REMARKS
WATERTOWN      MOCLDY    72  71  97 S9        29.71R FOG
FORT DRUM      NOT AVBL
OGDENSBURG     CLOUDY    67  66  95 CALM      29.71F
MASSENA        LGT RAIN  64  64 100 VRB5      29.75S
PLATTSBURGH    RAIN      64  60  87 S5        29.82S
$$

NYZ001>004-010>016-019>021-085-181100-
WEST


CITY           SKY/WX    TMP DP  RH WIND       PRES   REMARKS
NIAGARA FALLS  MOCLDY    76  70  82 SW14      29.73R
BUFFALO        MOCLDY    75  70  84 SW14G26   29.74R
DUNKIRK        CLEAR     73  69  87 SW8       29.77R
JAMESTOWN      MOCLDY    70  68  94 SW7       29.84R
WELLSVILLE     CLOUDY    72  67  84 SW8       29.87R
ROCHESTER      CLOUDY    73  71  93 SW5       29.74R
PENN YAN       MOCLDY    74  70  87 S7        29.79R
$$

             KEY
       WCI = WIND CHILL INDEX
       VSB = VISIBILITY
       HX  = HEAT INDEX
$$



USA.gov is the U.S. government's official web portal to all federal, state and local government web resources and services.